[[{"header":{"parameterUnit":"m.s-1","parameterCategory":1,"la1":30.2992,"la2":30.254,"lo1":-89.0895,"lo2":-89.0443,"dy":0.0025,"dx":0.0025,"nx":19,"ny":19,"refTime":"2026-03-11T21:00:00:Z","depth":0,"parameterNumber":2,"parameterNumberName":"U-component_of_WINDS"},"data":[0,0,0,-2.4234,-2.4237,-2.4341,-2.4341,-2.4489,-2.449,0,0,0,0,0,0,0,0,0,0,0,-2.4213,-2.4214,-2.4234,-2.4237,-2.4341,-2.4341,-2.4488,-2.449,0,0,0,0,0,0,0,0,0,0,0,-2.4212,-2.4214,-2.4216,-2.4237,-2.434,-2.4341,-2.4488,-2.4404,0,0,0,0,0,0,0,0,0,0,-2.4301,-2.4291,-2.4214,-2.4216,-2.4238,-2.434,-2.4341,-2.44,-2.441,-2.4448,0,-2.4485,0,-2.449,-2.4501,-2.4502,0,0,0,-2.423,-2.4283,-2.4302,-2.4216,-2.4239,-2.434,-2.4292,-2.4405,-2.4416,-2.4461,-2.4487,-2.4492,-2.4493,-2.4502,-2.4503,-2.475,-2.4751,0,0,-2.4224,-2.4237,-2.4295,-2.431,-2.4295,-2.4288,-2.4295,-2.4411,-2.4441,-2.4488,-2.4496,-2.4495,-2.4503,-2.4504,-2.4748,-2.475,0,0,0,-2.4212,-2.4233,-2.4249,-2.4304,-2.4322,-2.4292,-2.4299,-2.4436,-2.444,-2.4497,-2.4497,-2.4504,-2.4506,-2.4747,-2.4749,-2.4836,0,0,0,-2.4209,-2.4226,-2.4247,-2.4256,-2.432,-2.438,-2.4322,-2.4432,-2.4445,-2.4496,-2.4504,-2.4508,-2.4745,-2.4748,-2.483,-2.4875,0,0,0,-2.4203,-2.4226,-2.4244,-2.4257,-2.4302,-2.4378,-2.4389,-2.4434,-2.4445,-2.4502,-2.4508,-2.4744,-2.4747,-2.4824,-2.4866,-2.4944,0,0,0,-2.4201,-2.432,-2.4246,-2.4378,-2.4301,-2.4431,-2.4388,-2.4484,-2.4543,-2.4505,-2.4745,-2.4749,-2.4823,-2.4861,-2.4939,-2.5013,-2.5045,0,0,-2.4358,-2.4339,-2.4416,-2.4352,-2.4499,-2.4414,-2.4572,-2.4614,-2.4607,-2.4702,-2.4708,-2.4832,-2.4866,-2.4943,-2.5217,-2.5242,0,0,0,-2.447,-2.4526,-2.4561,-2.4618,-2.4652,-2.4685,-2.4701,-2.4716,-2.4796,-2.4659,-2.488,-2.49,-2.4944,-2.4979,-2.5001,-2.5039,-2.4765,-2.4765,-2.4764,-2.4713,-2.4697,-2.4823,-2.482,-2.4875,-2.4889,-2.4933,-2.4955,-2.4924,-2.4976,-2.5005,-2.5173,-2.5215,-2.5231,-2.527,-2.5042,-2.5042,-2.5042,-2.5043,-2.4943,-2.5019,-2.4973,-2.5079,-2.5062,-2.515,-2.5168,-2.5142,-2.5222,-2.515,-2.5189,-2.5114,-2.5259,-2.5293,-2.5049,-2.5048,-2.5047,-2.5047,-2.5046,-2.5101,-2.5135,-2.5151,-2.523,-2.5293,-2.5284,-2.5363,-2.5344,-2.5326,-2.5364,-2.5393,-2.5391,-2.5388,-2.5379,-2.538,-2.538,-2.5381,-2.5381,-2.5381,-2.526,-2.5275,-2.5343,-2.5389,-2.5422,-2.5463,-2.5477,-2.5509,-2.5539,-2.5519,-2.5519,-2.5483,-2.5276,-2.5225,-2.539,-2.5389,-2.5388,-2.5387,-2.5386,-2.5501,-2.5443,-2.555,-2.5583,-2.5633,-2.5697,-2.567,-2.5737,-2.576,-2.5799,-2.5754,-2.5603,-2.5583,-2.5566,-2.5523,-2.5756,-2.5756,-2.5756,-2.5756,-2.5636,-2.5623,-2.5727,-2.5781,-2.5832,-2.5818,-2.5938,-2.5949,-2.5952,-2.5965,-2.5928,-2.587,-2.5853,-2.5842,-2.5819,-2.578,-2.6073,-2.6073,-2.6073,-2.5784,-2.5775,-2.5881,-2.5883,-2.592,-2.5953,-2.6065,-2.6128,-2.6119,-2.6086,-2.5975,-2.5962,-2.5868,-2.5838,-2.5804,-2.5768,-2.5695,0,0]},{"header":{"parameterUnit":"m.s-1","parameterCategory":1,"la1":30.2992,"la2":30.254,"lo1":-89.0895,"lo2":-89.0443,"dy":0.0025,"dx":0.0025,"nx":19,"ny":19,"refTime":"2026-03-11T21:00:00:Z","depth":0,"parameterNumber":3,"parameterNumberName":"V-component_of_WINDS"},"data":[0,0,0,-6.8507,-6.8512,-6.8712,-6.8712,-6.8979,-6.8982,0,0,0,0,0,0,0,0,0,0,0,-6.8458,-6.8461,-6.8507,-6.8512,-6.8712,-6.8713,-6.8979,-6.8982,0,0,0,0,0,0,0,0,0,0,0,-6.8457,-6.846,-6.8463,-6.8513,-6.8712,-6.8713,-6.8978,-6.8823,0,0,0,0,0,0,0,0,0,0,-6.8626,-6.8592,-6.8459,-6.8463,-6.8514,-6.8711,-6.8713,-6.8815,-6.8832,-6.8895,0,-6.8956,0,-6.8973,-6.9001,-6.9002,0,0,0,-6.8504,-6.8578,-6.8623,-6.8463,-6.8516,-6.8711,-6.8619,-6.8825,-6.8844,-6.8918,-6.8959,-6.8969,-6.8978,-6.9002,-6.9004,-6.9398,-6.9401,0,0,-6.8493,-6.8499,-6.8609,-6.8636,-6.861,-6.8613,-6.8626,-6.8836,-6.8881,-6.896,-6.8975,-6.8982,-6.9004,-6.9007,-6.9396,-6.9399,0,0,0,-6.8467,-6.8492,-6.8531,-6.8626,-6.8661,-6.8619,-6.8634,-6.8871,-6.8884,-6.8978,-6.8985,-6.9006,-6.9009,-6.9394,-6.9397,-6.9515,0,0,0,-6.846,-6.8477,-6.8527,-6.8533,-6.8657,-6.8769,-6.8664,-6.8869,-6.8893,-6.8984,-6.9006,-6.9012,-6.9391,-6.9396,-6.9507,-6.957,0,0,0,-6.8442,-6.8474,-6.8507,-6.8533,-6.8619,-6.8766,-6.879,-6.8874,-6.8898,-6.9002,-6.9013,-6.939,-6.9395,-6.9499,-6.9557,-6.9676,0,0,0,-6.8424,-6.8608,-6.8509,-6.8718,-6.8618,-6.8838,-6.8789,-6.8952,-6.9055,-6.9007,-6.9392,-6.9397,-6.9497,-6.955,-6.9668,-6.9777,-6.9823,0,0,-6.866,-6.8637,-6.8759,-6.8676,-6.8917,-6.8807,-6.9064,-6.9151,-6.9153,-6.9316,-6.9325,-6.951,-6.9557,-6.9674,-7.008,-7.0117,0,0,0,-6.8836,-6.8924,-6.8986,-6.9086,-6.9159,-6.9225,-6.9273,-6.9304,-6.9443,-6.9239,-6.9584,-6.9612,-6.968,-6.9732,-6.9764,-6.9821,-6.9421,-6.9421,-6.942,-6.918,-6.9175,-6.9376,-6.9395,-6.9492,-6.9539,-6.9617,-6.9667,-6.9632,-6.9714,-6.9762,-7.0009,-7.007,-7.0094,-7.0154,-6.9819,-6.9819,-6.982,-6.982,-6.9525,-6.9649,-6.9599,-6.9777,-6.9769,-6.9917,-6.9968,-6.9938,-7.0073,-6.9972,-7.0032,-6.9923,-7.0134,-7.0187,-6.9829,-6.9827,-6.9826,-6.9826,-6.9825,-6.975,-6.9808,-6.9845,-6.9989,-7.0099,-7.011,-7.0243,-7.023,-7.0219,-7.0278,-7.0327,-7.0325,-7.0322,-7.0303,-7.0304,-7.0304,-7.0305,-7.0306,-7.0306,-6.9968,-7.0006,-7.0121,-7.0214,-7.0275,-7.0355,-7.0403,-7.0463,-7.0525,-7.0505,-7.0505,-7.0462,-7.0157,-7.008,-7.032,-7.0317,-7.0315,-7.0314,-7.0313,-7.0321,-7.0239,-7.0417,-7.0479,-7.0585,-7.0695,-7.0677,-7.08,-7.0847,-7.0912,-7.0855,-7.0632,-7.0606,-7.0581,-7.0518,-7.0856,-7.0856,-7.0856,-7.0857,-7.0511,-7.0497,-7.0675,-7.0775,-7.0872,-7.0874,-7.1071,-7.1109,-7.1135,-7.1164,-7.1112,-7.1027,-7.1002,-7.0991,-7.0958,-7.0898,-7.1326,-7.1326,-7.1327,-7.0727,-7.0722,-7.0894,-7.0921,-7.1003,-7.1072,-7.1257,-7.1372,-7.1384,-7.1346,-7.1185,-7.1165,-7.1027,-7.0983,-7.0942,-7.0889,-7.078,0,0]}]]